Location: Frankfurt am Main
(50.1109°N, 8.6821°E)
Time: 09:22:57
(UTC+02:00)

ISS - Visible Passes

Search period start: 19 May 2019 00:00
Search period end: 29 May 2019 00:00
Orbit: 408 x 410 km, 51.6° (Epoch: 19 May)

Date Brightness Start Highest point End Pass type
(mag) Time Alt. Az. Time Alt. Az. Time Alt. Az.
19 May -3.7 00:29:28 10° W 00:32:46 75° N 00:36:05 10° ENE visible
19 May -3.6 02:06:12 10° WNW 02:09:30 72° N 02:12:49 10° E visible
19 May -3.5 03:42:50 10° W 03:46:00 42° SSW 03:49:09 10° SE visible
19 May -2.7 22:02:47 10° SSW 22:05:32 25° SE 22:08:19 10° E visible
19 May -3.9 23:38:32 10° WSW 23:41:50 88° SSE 23:45:10 10° ENE visible
20 May -3.5 01:15:15 10° W 01:18:33 65° N 01:21:51 10° E visible
20 May -3.9 02:51:53 10° WNW 02:55:10 61° SSW 02:58:26 10° ESE visible
20 May -2.1 04:29:17 10° WSW 04:31:14 15° SW 04:33:11 10° S visible
20 May -3.9 22:47:40 10° WSW 22:50:56 66° SSE 22:54:14 10° ENE visible
21 May -3.4 00:24:17 10° W 00:27:34 65° N 00:30:53 10° E visible
21 May -4.0 02:00:57 10° WNW 02:04:16 84° SSW 02:04:27 77° SE visible
21 May -3.5 21:56:54 10° SW 22:00:04 46° SSE 22:03:16 10° ENE visible
21 May -3.5 23:33:17 10° W 23:36:36 70° N 23:39:54 10° ENE visible
22 May -3.8 01:10:01 10° WNW 01:13:19 78° NNE 01:14:11 46° E visible
22 May -1.2 02:46:42 10° W 02:46:51 11° W 02:46:51 11° W visible
22 May -3.8 22:42:18 10° WSW 22:45:37 82° NNW 22:48:56 10° ENE visible
23 May -3.5 00:19:02 10° WNW 00:22:20 68° N 00:24:28 20° E visible
23 May -2.2 01:55:40 10° WNW 01:57:10 24° W 01:57:10 24° W visible
23 May -3.9 21:51:22 10° WSW 21:54:40 78° SSE 21:57:58 10° ENE visible
23 May -3.4 23:28:02 10° W 23:31:20 64° N 23:34:38 10° E visible
24 May -3.8 01:04:40 10° WNW 01:07:39 64° WSW 01:07:39 64° WSW visible
24 May -3.4 22:37:01 10° W 22:40:19 66° N 22:43:36 10° ENE visible
25 May -3.9 00:13:42 10° WNW 00:17:01 87° NNE 00:18:11 38° ESE visible
25 May -1.3 01:50:29 10° W 01:50:54 12° W 01:50:54 12° W visible
25 May -3.6 23:22:43 10° WNW 23:26:01 72° N 23:28:45 14° E visible
26 May -2.6 00:59:22 10° W 01:01:28 31° WSW 01:01:28 31° WSW visible
26 May -3.4 22:31:41 10° W 22:34:59 65° N 22:38:17 10° E visible
27 May -3.8 00:08:18 10° WNW 00:11:35 61° SSW 00:12:04 52° SSE visible
27 May -3.9 23:17:17 10° WNW 23:20:36 83° SSW 23:22:42 21° ESE visible
28 May -1.7 00:54:12 10° W 00:55:24 17° WSW 00:55:24 17° WSW visible
28 May -3.7 22:26:16 10° WNW 22:29:34 79° N 22:32:54 10° E visible
